Victoria, TX

3:20 PM CDT on August 21, 2017 (GMT -0500)
Victoria Regional

Weather History for KVCT - July, 2013

Change the Weather History Date:

Tuesday, July 9, 2013

  Actual Average Record
Temperature  
Mean Temperature 87 °F 84 °F  
Max Temperature 97 °F 93 °F 110 °F (1939)
Min Temperature 76 °F 74 °F 69 °F (1952)
Degree Days  
Heating Degree Days 0 0  
Month to date heating degree days 0 0  
Since 1 June heating degree days 0 0  
Since 1 July heating degree days 0 0  
Cooling Degree Days 22 19  
Month to date cooling degree days 169 166  
Year to date cooling degree days 1395 1333  
Since 1 June cooling degree days 761 674  
Growing Degree Days 36 (Base 50)    
Moisture  
Dew Point 75 °F    
Average Humidity 73    
Maximum Humidity 100    
Minimum Humidity 46    
Precipitation  
Precipitation T in 0.15 in 1.39 in (1961)
Month to date precipitation 0.85 1.37  
Year to date precipitation 10.41 21.21  
Snow  
Snow 0.00 in - - ()
Month to date snowfall 0.0  
Since 1 June snowfall 0.0  
Since 1 July snowfall 0.0  
Snow Depth 0.00 in    
Sea Level Pressure  
Sea Level Pressure 30.09 in    
Wind  
Wind Speed 8 mph (SE)    
Max Wind Speed 21 mph    
Max Gust Speed 28 mph    
Visibility 10 miles    
Events      
T = Trace of Precipitation, MM = Missing Value Source: NWS Daily Summary

Daily Weather History Graph

Daily Weather History Graph

Search for Another Location

Airport or City:

Trip Planner

Search our weather history database for the weather conditions in past years. The results will help you decide how hot, cold, wet, or windy it might be!

Date:

Astronomy

Jul. 09, 2013 Rise Set
Actual Time 6:36 AM CDT 8:29 PM CDT
Civil Twilight 6:09 AM CDT 8:55 PM CDT
Nautical Twilight 5:37 AM CDT 9:28 PM CDT
Astronomical Twilight 5:03 AM CDT 10:02 PM CDT
Moon 7:51 AM CDT (7/9) 9:20 PM CDT (7/9)
Length of Visible Light 14h 46m
Length of Day
13h 52m
New Moon, 2% of the Moon is Illuminated
Jul 9
New Moon
Jul 15
First Quarter
Jul 22
Full
Jul 29
Last Quarter
Aug 6
New

Hourly Weather History & Observations

Time (CDT) Temp. Heat Index Dew Point Humidity Pressure Visibility Wind Dir Wind Speed Gust Speed Precip Events Conditions
12:51 AM 78.1 °F - 75.9 °F 93% 30.10 in 10.0 mi SSE 4.6 mph - N/A   Clear
1:51 AM 77.0 °F - 75.0 °F 94% 30.10 in 10.0 mi East 3.5 mph - N/A   Clear
2:51 AM 77.0 °F - 75.0 °F 94% 30.09 in 10.0 mi Calm Calm - N/A   Clear
3:51 AM 75.9 °F - 75.0 °F 97% 30.09 in 10.0 mi Calm Calm - N/A   Clear
4:21 AM 75.2 °F - 75.2 °F 100% 30.10 in 10.0 mi Calm Calm - N/A   Mostly Cloudy
4:51 AM 77.0 °F - 75.0 °F 94% 30.09 in 10.0 mi Calm Calm - N/A   Mostly Cloudy
4:58 AM 77.0 °F - 75.2 °F 94% 30.10 in 10.0 mi Calm Calm - N/A   Partly Cloudy
5:17 AM - - - N/A% 30.10 in 10.0 mi Calm Calm - N/A   Mostly Cloudy
5:47 AM - - - N/A% 30.10 in 10.0 mi NE 4.6 mph - N/A   Partly Cloudy
5:51 AM - - - N/A% 30.10 in 10.0 mi NE 4.6 mph - N/A   Partly Cloudy
6:51 AM - - - N/A% 30.10 in 10.0 mi Calm Calm - N/A   Clear
7:51 AM - - - N/A% 30.12 in 10.0 mi Calm Calm - N/A   Clear
8:51 AM 82.0 °F 91.0 °F 78.1 °F 88% 30.13 in 10.0 mi Calm Calm - N/A   Clear
9:51 AM 84.9 °F 94.1 °F 75.9 °F 74% 30.14 in 10.0 mi SE 6.9 mph - N/A   Partly Cloudy
10:51 AM 90.0 °F 97.9 °F 73.0 °F 57% 30.13 in 10.0 mi ESE 11.5 mph 16.1 mph N/A   Clear
11:07 AM 89.6 °F 98.2 °F 73.4 °F 59% 30.13 in 10.0 mi SE 8.1 mph - N/A   Scattered Clouds
11:51 AM 91.0 °F 100.4 °F 73.9 °F 57% 30.12 in 10.0 mi ESE 10.4 mph - N/A   Scattered Clouds
12:51 PM 95.0 °F 103.2 °F 72.0 °F 47% 30.10 in 10.0 mi SSE 13.8 mph 17.3 mph N/A   Clear
1:51 PM 95.0 °F 105.2 °F 73.9 °F 50% 30.08 in 10.0 mi ESE 10.4 mph - 0.00 in   Partly Cloudy
2:51 PM 96.1 °F 108.6 °F 75.0 °F 51% 30.07 in 10.0 mi SE 16.1 mph - N/A   Partly Cloudy
3:51 PM 95.0 °F 106.7 °F 75.0 °F 52% 30.06 in 10.0 mi SSE 19.6 mph 27.6 mph N/A   Partly Cloudy
4:51 PM 93.9 °F 104.0 °F 73.9 °F 52% 30.05 in 10.0 mi SE 16.1 mph 25.3 mph N/A   Scattered Clouds
4:56 PM 93.2 °F 102.4 °F 73.4 °F 52% 30.05 in 10.0 mi SE 17.3 mph - N/A   Partly Cloudy
5:51 PM 91.9 °F 101.3 °F 73.9 °F 55% 30.04 in 10.0 mi ESE 16.1 mph 24.2 mph N/A   Partly Cloudy
6:51 PM 90.0 °F 97.9 °F 73.0 °F 57% 30.04 in 10.0 mi SE 17.3 mph - N/A   Scattered Clouds
7:51 PM 87.1 °F 95.4 °F 73.9 °F 65% 30.04 in 10.0 mi SE 16.1 mph - N/A   Clear
8:51 PM 82.9 °F 89.4 °F 73.9 °F 74% 30.04 in 10.0 mi SSE 12.7 mph - N/A   Clear
9:51 PM 82.0 °F 88.6 °F 75.0 °F 79% 30.06 in 10.0 mi SSE 6.9 mph - N/A   Partly Cloudy
10:51 PM 81.0 °F 87.3 °F 75.9 °F 85% 30.06 in 10.0 mi SSE 8.1 mph - N/A   Clear
11:51 PM 79.0 °F - 75.9 °F 90% 30.07 in 10.0 mi SSE 5.8 mph - N/A   Clear